Showing default

CONNECTA IOT-15, 67402

Orbit data source: Space-Track

CONNECTA IOT-15, 67402 is a payload satellite owned by Plan-S (TR) in SSO that was launched on Sun, 11 Jan 2026 UTC via an FALCON 9 launch vehicle from the Air Force Western Test Range (AFWTR). Payload-class satellites include a variety of spacecraft equipped with specific instruments for various scientific and technological missions. These include communications satellites like Starlink; space stations such as the ISS; scientific satellites like the Hubble; Earth observation satellites from companies like Planet Labs, Umbra, and HawkEye 360; GPS; miniature CubeSats for education and research; and military/defense satellites.

Loading next visibility...
Identifier
67402, 2026-004AR
Orbit
SSO
Country
Flag of TRTR / TURK
Related business
Manufacturer
Plan-S
Mission
Operational spacecraft
Bus & Motor
CUBESAT 6U, Unknown motor
Mass
10 kg wet, 10 kg dry
Launch date (UTC)
2026-01-11 (3 months ago)
Launch vehicle
FALCON 9
Launch site
Air Force Western Test Range (AFWTR)
Object type
Payload
Rocket body
Debris
Shape & HBR
Unknown shape, 2.2 m
Radar Cross Section
RCS unknown

Expand to show TLE details & history
Last TLE update: 6 hours ago

TLE from 6 hours ago
0 CONNECTA IOT-15
1 67402U 26004AR  26095.46682953  .00004624  00000-0  23863-3 0  9997
2 67402  97.4579  95.4418 0002523 179.0314 181.0925 15.16814183 12704
Epoch: 2026-04-05T11:12Z
TLE epoch observation values (Epoch: 2026-04-05T11:12:14.071Z)
Latitude
0.00002°
Longitude
93.61133°
Altitude
520.3 km
Speed
7.602 km/s
True Right ascension
06h 21m 46s
True Declination
0° 00' 00"
Sunlit
Object was in daylight at epoch
Visualization orbit readout
Latitude
Unknown
Longitude
Unknown
Altitude
Unknown
Speed
Unknown
Apparent Right ascension
Unknown
Apparent Declination
Unknown
Sunlit
N/A
Visualization observer readout
Local Sidereal Time
23:09:15
Azimuth
Unknown
Elevation
Unknown
Doppler factor
Unknown
Orbital elements
Apogee altitude
514.187 km
Perigee altitude
510.71 km
Semi-major axis
6,890.586 km
Eccentricity
0.00025
Inclination
97.4579°
RAAN
95.4418°
Arg. of periapsis
179.0314°
True anomaly
181.09195°
Mean anomaly
181.0925°
Eccentric anomaly
181.09222°
Mean motion
3.79454 °/min
Orbital period
94.87 mins
BSTAR
0.00023863
Loading maneuver chart data...
Computing Atmospheric mass density...
Loading historical data...
Loading historical data...
Loading historical data...
Loading historical data...
Loading historical data...
Loading historical data...
Loading historical data...

Documentation

Showing up to 5 results
|